Flag for USA

Past Weather in Washington Avenue Historic District, Georgia, USA — Yesterday and Last 2 Weeks

Now
70 °F

Clear.


Feels Like: 67 °F
Forecast: 95 / 70 °F
Wind: No wind

Location: Fulton County Airport-Brown Field

Current Time: May 26, 2019 at 3:47:02 am

Latest Report: May 26, 2019 at 2:53 am


Visibility: 10 mi

Pressure: 30.10 "Hg

Humidity: 90%

Dew Point: 67 °F

Location of Washington Avenue Historic DistrictLocation

Past Weather in Washington Avenue Historic District — Graph

°F

Washington Avenue Historic District Temperature Yesterday

Maximum temperature yesterday: 92 °F (at 3:53 pm)
Minimum temperature yesterday: 70 °F (at 3:53 am)
Average temperature yesterday: 81 °F

High & Low Weather Summary for the Past Weeks

 TemperatureHumidityPressure
High92 °F (May 24, 4:53 pm)97% (May 17, 6:53 am)30.24 "Hg (May 17, 6:53 am)
Low49 °F (May 15, 6:53 am)33% (May 19, 4:53 pm)29.73 "Hg (May 12, 5:53 pm)
Average73 °F68%29.99 "Hg
* Reported May 11 1:53 am — May 26 1:53 am, Washington Avenue Historic District. Weather by CustomWeather, © 2019

Note: Actual official high and low records may vary slightly from our data, if they occured in-between our weather recording intervals... More about our weather records

Advertising

Washington Avenue Historic District Weather History for the Previous 24 Hours

Scroll right to see more
 ConditionsComfort  
Time TempWeatherWind HumidityBarometerVisibility
1:53 am
Sun, May 26
73 °FClear.No wind84%30.11 "Hg10 mi
12:53 am73 °FClear.No wind84%30.11 "Hg10 mi
11:53 pm
Sat, May 25
75 °FClear.No wind79%30.11 "Hg10 mi
10:53 pm75 °FClear.No wind79%30.11 "Hg10 mi
9:53 pm79 °FClear.No wind69%30.10 "Hg10 mi
8:53 pm84 °FClear.No wind55%30.09 "Hg10 mi
7:53 pm89 °FSunny.3 mph43%30.09 "Hg10 mi
6:53 pm91 °FPassing clouds.9 mph39%30.09 "Hg10 mi
5:53 pm92 °FPassing clouds.7 mph37%30.09 "Hg10 mi
4:53 pm90 °FSunny.8 mph39%30.10 "Hg10 mi
3:53 pm92 °FPartly sunny.3 mph40%30.11 "Hg10 mi
2:53 pm91 °FSunny.3 mph39%30.12 "Hg10 mi
1:53 pm91 °FScattered clouds.8 mph44%30.14 "Hg10 mi
12:53 pm88 °FScattered clouds.8 mph45%30.16 "Hg10 mi
11:53 am87 °FPassing clouds.9 mph48%30.17 "Hg10 mi
10:53 am87 °FSunny.8 mph51%30.17 "Hg10 mi
9:53 am84 °FSunny.9 mph55%30.16 "Hg10 mi
8:53 am79 °FSunny.No wind72%30.16 "Hg10 mi
7:53 am73 °FSunny.No wind84%30.15 "Hg10 mi
6:53 am70 °FSunny.5 mph90%30.14 "Hg10 mi
5:53 am72 °FClear.No wind84%30.11 "Hg10 mi
4:53 am72 °FClear.No wind84%30.09 "Hg10 mi
3:53 am70 °FClear.No wind90%30.08 "Hg10 mi
Weather by CustomWeather, © 2019

See weather overview